Time,TemperatureF,DewpointF,PressureIn,WindDirection,WindDirectionDegrees,WindSpeedMPH,WindSpeedGustMPH,Humidity,HourlyPrecipIn,Conditions,Clouds,dailyrainin,SoftwareType,DateUTC
2013-03-11 04:50:00,63.5,43.5,30.15,East,96,0.0,0.0,48,0.00,,---,0.00,VWS V14.01,2013-03-11 08:50:00,
2013-03-11 04:51:00,63.5,43.5,30.15,East,96,0.0,0.0,48,0.00,,---,0.00,VWS V14.01,2013-03-11 08:51:00,
2013-03-11 04:56:00,63.5,43.5,30.15,East,96,0.0,0.0,48,0.00,,---,0.00,VWS V14.01,2013-03-11 08:56:00,
2013-03-11 05:01:00,64.4,43.8,30.15,SE,125,0.0,2.7,47,0.00,,---,0.00,VWS V14.01,2013-03-11 09:01:00,
2013-03-11 05:07:00,64.8,43.5,30.12,East,84,0.0,0.0,46,0.00,,---,0.00,VWS V14.01,2013-03-11 09:07:00,
2013-03-11 05:12:00,65.3,42.8,30.12,East,100,3.6,3.6,44,0.00,,---,0.00,VWS V14.01,2013-03-11 09:12:00,
2013-03-11 05:17:00,66.0,42.3,30.12,ESE,115,0.0,3.6,42,0.00,,---,0.00,VWS V14.01,2013-03-11 09:17:00,
2013-03-11 05:22:00,66.6,41.5,30.12,East,101,2.2,2.2,40,0.00,,---,0.00,VWS V14.01,2013-03-11 09:22:00,
2013-03-11 05:27:00,66.7,41.0,30.12,ESE,111,0.0,0.0,39,0.00,,---,0.00,VWS V14.01,2013-03-11 09:27:00,
2013-03-11 05:32:00,66.9,40.5,30.12,ESE,105,3.1,3.6,38,0.00,,---,0.00,VWS V14.01,2013-03-11 09:32:00,
2013-03-11 05:38:00,67.3,40.8,30.12,SE,131,4.0,4.0,38,0.00,,---,0.00,VWS V14.01,2013-03-11 09:38:00,
2013-03-11 05:43:00,67.6,40.5,30.12,ESE,108,2.7,2.7,37,0.00,,---,0.00,VWS V14.01,2013-03-11 09:43:00,
2013-03-11 05:48:00,67.5,41.0,30.12,ESE,103,2.2,3.1,38,0.00,,---,0.00,VWS V14.01,2013-03-11 09:48:00,
2013-03-11 05:53:00,67.8,40.6,30.12,SE,139,6.3,6.7,37,0.00,,---,0.00,VWS V14.01,2013-03-11 09:53:00,
2013-03-11 05:58:00,68.0,40.1,30.12,SE,130,3.6,4.9,36,0.00,,---,0.00,VWS V14.01,2013-03-11 09:58:00,
2013-03-11 06:03:00,67.6,40.5,30.12,ESE,112,3.1,3.1,37,0.00,,---,0.00,VWS V14.01,2013-03-11 10:03:00,
2013-03-11 06:08:00,67.1,40.7,30.12,ESE,115,0.0,3.1,38,0.00,,---,0.00,VWS V14.01,2013-03-11 10:08:00,
2013-03-11 06:14:00,66.6,40.9,30.12,SE,124,3.1,3.1,39,0.00,,---,0.00,VWS V14.01,2013-03-11 10:14:00,
2013-03-11 06:19:00,65.7,42.0,30.12,ESE,120,3.1,4.0,42,0.00,,---,0.00,VWS V14.01,2013-03-11 10:19:00,
2013-03-11 06:24:00,65.3,42.2,30.12,ESE,104,2.2,4.0,43,0.00,,---,0.00,VWS V14.01,2013-03-11 10:24:00,
2013-03-11 06:29:00,64.8,42.4,30.12,ESE,121,0.0,2.2,44,0.00,,---,0.00,VWS V14.01,2013-03-11 10:29:00,
2013-03-11 06:34:00,64.2,43.0,30.12,East,93,0.0,2.2,46,0.00,,---,0.00,VWS V14.01,2013-03-11 10:34:00,
2013-03-11 06:39:00,63.9,43.3,30.12,ESE,113,0.0,0.0,47,0.00,,---,0.00,VWS V14.01,2013-03-11 10:39:00,
2013-03-11 06:44:00,63.5,42.9,30.12,ESE,105,0.0,3.1,47,0.00,,---,0.00,VWS V14.01,2013-03-11 10:44:00,
2013-03-11 06:49:00,63.0,44.0,30.12,ESE,112,2.2,2.7,50,0.00,,---,0.00,VWS V14.01,2013-03-11 10:49:00,
2013-03-11 06:54:00,62.4,43.5,30.12,ESE,103,0.0,0.0,50,0.00,,---,0.00,VWS V14.01,2013-03-11 10:54:00,
2013-03-11 07:00:00,61.9,44.6,30.12,East,93,0.0,2.7,53,0.00,,---,0.00,VWS V14.01,2013-03-11 11:00:00,
2013-03-11 07:05:00,61.7,45.9,30.12,ESE,123,0.0,3.6,56,0.00,,---,0.00,VWS V14.01,2013-03-11 11:05:00,
2013-03-11 07:10:00,61.5,45.7,30.12,ESE,114,2.7,2.7,56,0.00,,---,0.00,VWS V14.01,2013-03-11 11:10:00,
2013-03-11 07:15:00,61.7,47.2,30.12,ESE,111,0.0,0.0,59,0.00,,---,0.00,VWS V14.01,2013-03-11 11:15:00,
2013-03-11 07:20:00,61.5,46.6,30.12,ESE,111,0.0,0.0,58,0.00,,---,0.00,VWS V14.01,2013-03-11 11:20:00,
2013-03-11 07:26:00,61.2,46.7,30.15,ESE,106,3.1,3.6,59,0.00,,---,0.00,VWS V14.01,2013-03-11 11:26:00,
2013-03-11 07:31:00,61.0,47.9,30.15,ESE,105,0.0,0.0,62,0.00,,---,0.00,VWS V14.01,2013-03-11 11:31:00,
2013-03-11 07:36:00,60.8,47.3,30.15,ESE,108,0.0,0.0,61,0.00,,---,0.00,VWS V14.01,2013-03-11 11:36:00,
2013-03-11 07:41:00,60.4,46.9,30.15,ESE,108,0.0,0.0,61,0.00,,---,0.00,VWS V14.01,2013-03-11 11:41:00,
2013-03-11 07:46:00,59.9,47.3,30.15,ESE,108,0.0,0.0,63,0.00,,---,0.00,VWS V14.01,2013-03-11 11:46:00,
2013-03-11 07:51:00,59.5,47.8,30.15,ESE,108,0.0,0.0,65,0.00,,---,0.00,VWS V14.01,2013-03-11 11:51:00,
2013-03-11 07:56:00,59.5,48.6,30.15,ESE,108,0.0,0.0,67,0.00,,---,0.00,VWS V14.01,2013-03-11 11:56:00,
2013-03-11 08:02:00,59.7,49.9,30.15,ESE,108,0.0,0.0,70,0.00,,---,0.00,VWS V14.01,2013-03-11 12:02:00,
2013-03-11 08:07:00,60.8,51.7,30.15,ESE,108,0.0,0.0,72,0.00,,---,0.00,VWS V14.01,2013-03-11 12:07:00,
2013-03-11 08:12:00,61.9,53.1,30.15,ESE,108,0.0,0.0,73,0.00,,---,0.00,VWS V14.01,2013-03-11 12:12:00,
2013-03-11 08:17:00,63.3,54.5,30.15,SSE,151,0.0,2.2,73,0.00,,---,0.00,VWS V14.01,2013-03-11 12:17:00,
2013-03-11 08:22:00,64.9,46.4,30.15,SE,138,3.6,3.6,51,0.00,,---,0.00,VWS V14.01,2013-03-11 12:22:00,
2013-03-11 08:27:00,66.6,43.4,30.15,SSE,153,3.1,3.1,43,0.00,,---,0.00,VWS V14.01,2013-03-11 12:27:00,
2013-03-11 08:32:00,67.8,41.3,30.15,East,86,4.5,4.5,38,0.00,,---,0.00,VWS V14.01,2013-03-11 12:32:00,
2013-03-11 08:37:00,68.9,40.2,30.15,SE,141,2.7,3.1,35,0.00,,---,0.00,VWS V14.01,2013-03-11 12:37:00,
2013-03-11 08:43:00,70.5,40.1,30.15,ESE,122,7.6,7.6,33,0.00,,---,0.00,VWS V14.01,2013-03-11 12:43:00,
2013-03-11 08:48:00,72.0,39.7,30.15,SE,137,2.7,4.9,31,0.00,,---,0.00,VWS V14.01,2013-03-11 12:48:00,
2013-03-11 08:53:00,73.8,36.8,30.15,SE,127,5.8,5.8,26,0.00,,---,0.00,VWS V14.01,2013-03-11 12:53:00,
2013-03-11 08:58:00,73.6,36.6,30.15,SE,130,5.8,8.7,26,0.00,,---,0.00,VWS V14.01,2013-03-11 12:58:00,
2013-03-11 09:03:00,71.4,40.0,30.15,SE,137,6.7,6.7,32,0.00,,---,0.00,VWS V14.01,2013-03-11 13:03:00,
2013-03-11 09:08:00,70.5,39.3,30.18,East,91,3.1,3.6,32,0.00,,---,0.00,VWS V14.01,2013-03-11 13:08:00,
2013-03-11 09:14:00,70.5,39.3,30.18,ESE,106,5.4,7.6,32,0.00,,---,0.00,VWS V14.01,2013-03-11 13:14:00,
2013-03-11 09:19:00,73.4,39.2,30.18,SE,130,5.8,5.8,29,0.00,,---,0.00,VWS V14.01,2013-03-11 13:19:00,
2013-03-11 09:24:00,73.0,38.0,30.18,South,172,4.9,9.6,28,0.00,,---,0.00,VWS V14.01,2013-03-11 13:24:00,
2013-03-11 09:29:00,72.0,39.7,30.18,SE,128,6.3,8.1,31,0.00,,---,0.00,VWS V14.01,2013-03-11 13:29:00,
2013-03-11 09:34:00,76.3,37.9,30.18,ENE,64,2.7,4.0,25,0.00,,---,0.00,VWS V14.01,2013-03-11 13:34:00,
2013-03-11 09:39:00,76.3,35.8,30.18,SSE,156,8.1,8.1,23,0.00,,---,0.00,VWS V14.01,2013-03-11 13:39:00,
2013-03-11 09:45:00,74.1,36.1,30.18,SE,139,3.1,5.8,25,0.00,,---,0.00,VWS V14.01,2013-03-11 13:45:00,
2013-03-11 09:50:00,74.1,37.1,30.18,SSE,147,6.3,6.3,26,0.00,,---,0.00,VWS V14.01,2013-03-11 13:50:00,
2013-03-11 09:55:00,75.2,37.0,30.18,SE,139,9.6,9.6,25,0.00,,---,0.00,VWS V14.01,2013-03-11 13:55:00,
2013-03-11 10:00:00,79.0,35.8,30.18,SE,126,6.3,8.1,21,0.00,,---,0.00,VWS V14.01,2013-03-11 14:00:00,
2013-03-11 10:05:00,80.8,37.2,30.18,SE,130,6.3,8.3,21,0.00,,---,0.00,VWS V14.01,2013-03-11 14:05:00,
2013-03-11 10:11:00,82.2,37.2,30.18,SSE,158,4.0,7.2,20,0.00,,---,0.00,VWS V14.01,2013-03-11 14:11:00,
2013-03-11 10:16:00,81.9,36.9,30.18,SSE,159,5.4,6.3,20,0.00,,---,0.00,VWS V14.01,2013-03-11 14:16:00,
2013-03-11 10:21:00,79.9,35.3,30.18,East,95,4.9,5.4,20,0.00,,---,0.00,VWS V14.01,2013-03-11 14:21:00,
2013-03-11 10:26:00,78.3,35.2,30.18,East,89,4.0,7.6,21,0.00,,---,0.00,VWS V14.01,2013-03-11 14:26:00,
2013-03-11 10:31:00,76.8,36.2,30.18,East,91,5.4,5.4,23,0.00,,---,0.00,VWS V14.01,2013-03-11 14:31:00,
2013-03-11 10:36:00,76.1,35.7,30.18,East,89,4.9,6.3,23,0.00,,---,0.00,VWS V14.01,2013-03-11 14:36:00,
2013-03-11 10:41:00,79.7,36.3,30.18,ESE,113,11.0,11.0,21,0.00,,---,0.00,VWS V14.01,2013-03-11 14:41:00,
2013-03-11 10:47:00,78.4,36.5,30.18,ESE,119,5.8,11.0,22,0.00,,---,0.00,VWS V14.01,2013-03-11 14:47:00,
2013-03-11 10:52:00,77.2,35.4,30.18,ESE,116,6.3,8.1,22,0.00,,---,0.00,VWS V14.01,2013-03-11 14:52:00,
2013-03-11 10:57:00,78.3,36.3,30.18,ENE,72,3.1,5.8,22,0.00,,---,0.00,VWS V14.01,2013-03-11 14:57:00,
2013-03-11 11:02:00,79.9,36.5,30.18,SE,131,5.8,7.6,21,0.00,,---,0.00,VWS V14.01,2013-03-11 15:02:00,
2013-03-11 11:07:00,83.5,36.9,30.18,SE,132,10.1,10.1,19,0.00,,---,0.00,VWS V14.01,2013-03-11 15:07:00,
2013-03-11 11:12:00,86.7,38.2,30.18,NE,51,5.8,8.7,18,0.00,,---,0.00,VWS V14.01,2013-03-11 15:12:00,
2013-03-11 11:17:00,84.4,37.7,30.18,East,101,6.3,6.3,19,0.00,,---,0.00,VWS V14.01,2013-03-11 15:17:00,
2013-03-11 11:23:00,81.9,36.9,30.18,SSE,167,5.4,5.8,20,0.00,,---,0.00,VWS V14.01,2013-03-11 15:23:00,
2013-03-11 11:28:00,79.3,36.0,30.18,East,93,5.8,6.3,21,0.00,,---,0.00,VWS V14.01,2013-03-11 15:28:00,
2013-03-11 11:33:00,80.6,35.9,30.18,ESE,108,5.4,7.2,20,0.00,,---,0.00,VWS V14.01,2013-03-11 15:33:00,
2013-03-11 11:38:00,79.9,36.5,30.18,SE,141,7.6,7.6,21,0.00,,---,0.00,VWS V14.01,2013-03-11 15:38:00,
2013-03-11 11:44:00,80.6,35.9,30.18,SE,135,6.3,6.3,20,0.00,,---,0.00,VWS V14.01,2013-03-11 15:44:00,
2013-03-11 11:49:00,87.6,38.9,30.18,SE,140,3.6,8.1,18,0.00,,---,0.00,VWS V14.01,2013-03-11 15:49:00,
2013-03-11 11:54:00,88.2,39.4,30.18,ESE,123,8.1,9.2,18,0.00,,---,0.00,VWS V14.01,2013-03-11 15:54:00,
2013-03-11 11:59:00,83.5,36.9,30.18,SE,139,8.1,10.1,19,0.00,,---,0.00,VWS V14.01,2013-03-11 15:59:00,
2013-03-11 12:04:00,87.4,38.8,30.18,ESE,115,10.5,10.5,18,0.00,,---,0.00,VWS V14.01,2013-03-11 16:04:00,
2013-03-11 12:09:00,85.1,36.9,30.18,ENE,65,7.6,7.6,18,0.00,,---,0.00,VWS V14.01,2013-03-11 16:09:00,
2013-03-11 12:15:00,85.6,37.3,30.18,ESE,112,8.1,8.1,18,0.00,,---,0.00,VWS V14.01,2013-03-11 16:15:00,
2013-03-11 12:20:00,87.3,38.6,30.18,South,183,2.7,5.4,18,0.00,,---,0.00,VWS V14.01,2013-03-11 16:20:00,
2013-03-11 12:25:00,85.5,37.2,30.18,East,91,7.2,11.0,18,0.00,,---,0.00,VWS V14.01,2013-03-11 16:25:00,
2013-03-11 12:30:00,86.5,38.0,30.18,SSE,155,5.8,12.3,18,0.00,,---,0.00,VWS V14.01,2013-03-11 16:30:00,
2013-03-11 12:36:00,84.4,37.7,30.15,East,86,8.1,8.1,19,0.00,,---,0.00,VWS V14.01,2013-03-11 16:36:00,
2013-03-11 12:41:00,84.9,38.1,30.15,SSE,156,6.3,10.5,19,0.00,,---,0.00,VWS V14.01,2013-03-11 16:41:00,
2013-03-11 12:46:00,84.6,37.8,30.15,ESE,120,8.1,10.5,19,0.00,,---,0.00,VWS V14.01,2013-03-11 16:46:00,
2013-03-11 12:51:00,84.2,37.5,30.15,ENE,58,4.0,8.1,19,0.00,,---,0.00,VWS V14.01,2013-03-11 16:51:00,
2013-03-11 12:56:00,89.1,40.1,30.15,ESE,117,5.8,5.8,18,0.00,,---,0.00,VWS V14.01,2013-03-11 16:56:00,
2013-03-11 13:02:00,86.2,37.8,30.15,SSE,155,4.0,5.8,18,0.00,,---,0.00,VWS V14.01,2013-03-11 17:02:00,
2013-03-11 13:07:00,83.8,37.2,30.15,ESE,119,7.6,8.1,19,0.00,,---,0.00,VWS V14.01,2013-03-11 17:07:00,
2013-03-11 13:12:00,83.1,36.6,30.15,SE,146,5.4,8.3,19,0.00,,---,0.00,VWS V14.01,2013-03-11 17:12:00,
2013-03-11 13:17:00,83.5,36.9,30.15,SE,146,5.4,8.3,19,0.00,,---,0.00,VWS V14.01,2013-03-11 17:17:00,
2013-03-11 13:22:00,84.0,37.4,30.15,SSE,163,7.6,8.7,19,0.00,,---,0.00,VWS V14.01,2013-03-11 17:22:00,
2013-03-11 13:28:00,83.7,37.1,30.15,ESE,106,4.0,6.3,19,0.00,,---,0.00,VWS V14.01,2013-03-11 17:28:00,
2013-03-11 13:33:00,83.1,36.6,30.15,ESE,102,5.4,11.0,19,0.00,,---,0.00,VWS V14.01,2013-03-11 17:33:00,
2013-03-11 13:38:00,86.9,38.3,30.15,ESE,103,6.3,6.3,18,0.00,,---,0.00,VWS V14.01,2013-03-11 17:38:00,
2013-03-11 13:43:00,84.6,37.8,30.15,SSE,163,3.6,5.4,19,0.00,,---,0.00,VWS V14.01,2013-03-11 17:43:00,
2013-03-11 13:48:00,86.7,38.2,30.15,ESE,118,8.1,8.1,18,0.00,,---,0.00,VWS V14.01,2013-03-11 17:48:00,
2013-03-11 13:53:00,84.2,37.5,30.12,SE,134,5.4,5.8,19,0.00,,---,0.00,VWS V14.01,2013-03-11 17:53:00,
2013-03-11 13:59:00,84.4,39.0,30.12,SE,131,7.2,7.2,20,0.00,,---,0.00,VWS V14.01,2013-03-11 17:59:00,
2013-03-11 14:04:00,88.3,39.5,30.12,ESE,121,8.7,8.7,18,0.00,,---,0.00,VWS V14.01,2013-03-11 18:04:00,
2013-03-11 14:09:00,85.8,38.8,30.12,South,172,5.8,5.8,19,0.00,,---,0.00,VWS V14.01,2013-03-11 18:09:00,
2013-03-11 14:14:00,86.9,38.3,30.12,SE,139,6.3,13.2,18,0.00,,---,0.00,VWS V14.01,2013-03-11 18:14:00,
2013-03-11 14:19:00,85.3,38.4,30.12,ESE,120,3.6,10.5,19,0.00,,---,0.00,VWS V14.01,2013-03-11 18:19:00,
2013-03-11 14:24:00,84.2,37.5,30.12,ESE,115,5.8,8.1,19,0.00,,---,0.00,VWS V14.01,2013-03-11 18:24:00,
2013-03-11 14:29:00,88.7,39.8,30.12,East,80,6.3,11.0,18,0.00,,---,0.00,VWS V14.01,2013-03-11 18:29:00,
2013-03-11 14:34:00,84.2,37.5,30.12,SSE,165,6.3,10.1,19,0.00,,---,0.00,VWS V14.01,2013-03-11 18:34:00,
2013-03-11 14:40:00,80.1,36.7,30.15,ESE,121,3.6,8.1,21,0.00,,---,0.00,VWS V14.01,2013-03-11 18:40:00,
2013-03-11 14:45:00,79.5,36.2,30.15,ESE,117,5.8,7.6,21,0.00,,---,0.00,VWS V14.01,2013-03-11 18:45:00,
2013-03-11 14:50:00,81.7,38.0,30.15,East,100,8.3,8.3,21,0.00,,---,0.00,VWS V14.01,2013-03-11 18:50:00,
2013-03-11 14:55:00,82.9,37.8,30.12,ENE,58,2.7,7.6,20,0.00,,---,0.00,VWS V14.01,2013-03-11 18:55:00,
2013-03-11 15:00:00,81.3,36.5,30.12,SE,131,4.9,7.2,20,0.00,,---,0.00,VWS V14.01,2013-03-11 19:00:00,
2013-03-11 15:05:00,80.1,36.7,30.12,SE,130,7.6,7.6,21,0.00,,---,0.00,VWS V14.01,2013-03-11 19:05:00,
2013-03-11 15:10:00,78.8,35.6,30.15,SE,132,6.7,6.7,21,0.00,,---,0.00,VWS V14.01,2013-03-11 19:10:00,
2013-03-11 15:15:00,77.5,36.8,30.15,SE,143,6.3,6.3,23,0.00,,---,0.00,VWS V14.01,2013-03-11 19:15:00,
2013-03-11 15:20:00,77.7,37.0,30.15,SE,128,4.9,8.3,23,0.00,,---,0.00,VWS V14.01,2013-03-11 19:20:00,
2013-03-11 15:25:00,78.4,37.6,30.12,NE,54,4.9,8.7,23,0.00,,---,0.00,VWS V14.01,2013-03-11 19:25:00,
2013-03-11 15:30:00,79.9,37.7,30.12,SE,132,5.8,6.3,22,0.00,,---,0.00,VWS V14.01,2013-03-11 19:30:00,
2013-03-11 15:35:00,81.7,38.0,30.12,SE,132,3.6,5.8,21,0.00,,---,0.00,VWS V14.01,2013-03-11 19:35:00,
2013-03-11 15:41:00,83.3,38.1,30.12,ESE,113,7.2,8.1,20,0.00,,---,0.00,VWS V14.01,2013-03-11 19:41:00,
2013-03-11 15:46:00,82.6,37.5,30.12,SE,127,3.6,5.8,20,0.00,,---,0.00,VWS V14.01,2013-03-11 19:46:00,
2013-03-11 15:51:00,82.6,37.5,30.12,SSE,152,5.8,8.3,20,0.00,,---,0.00,VWS V14.01,2013-03-11 19:51:00,
2013-03-11 15:56:00,80.4,37.0,30.12,East,101,5.4,5.8,21,0.00,,---,0.00,VWS V14.01,2013-03-11 19:56:00,
2013-03-11 16:01:00,79.0,36.9,30.12,SE,127,4.9,5.4,22,0.00,,---,0.00,VWS V14.01,2013-03-11 20:01:00,
2013-03-11 16:06:00,79.5,37.4,30.12,ESE,110,5.8,5.8,22,0.00,,---,0.00,VWS V14.01,2013-03-11 20:06:00,
2013-03-11 16:12:00,79.7,37.5,30.12,ESE,111,4.0,7.6,22,0.00,,---,0.00,VWS V14.01,2013-03-11 20:12:00,
2013-03-11 16:17:00,79.3,37.2,30.12,SE,142,3.1,4.9,22,0.00,,---,0.00,VWS V14.01,2013-03-11 20:17:00,
2013-03-11 16:22:00,79.0,36.9,30.12,South,172,8.1,8.3,22,0.00,,---,0.00,VWS V14.01,2013-03-11 20:22:00,
2013-03-11 16:27:00,78.8,36.8,30.12,SE,124,4.0,5.8,22,0.00,,---,0.00,VWS V14.01,2013-03-11 20:27:00,
2013-03-11 16:32:00,77.7,38.1,30.12,SE,140,6.3,6.3,24,0.00,,---,0.00,VWS V14.01,2013-03-11 20:32:00,
2013-03-11 16:37:00,78.6,38.8,30.12,ESE,115,2.7,5.8,24,0.00,,---,0.00,VWS V14.01,2013-03-11 20:37:00,
2013-03-11 16:43:00,77.9,38.2,30.12,SE,131,3.1,3.1,24,0.00,,---,0.00,VWS V14.01,2013-03-11 20:43:00,
2013-03-11 16:48:00,77.2,37.6,30.12,East,101,8.7,8.7,24,0.00,,---,0.00,VWS V14.01,2013-03-11 20:48:00,
2013-03-11 16:53:00,76.8,38.4,30.12,SSE,152,6.3,10.5,25,0.00,,---,0.00,VWS V14.01,2013-03-11 20:53:00,
2013-03-11 16:58:00,76.6,39.2,30.12,ESE,115,4.9,4.9,26,0.00,,---,0.00,VWS V14.01,2013-03-11 20:58:00,
2013-03-11 17:03:00,76.6,38.2,30.12,ESE,117,8.3,8.3,25,0.00,,---,0.00,VWS V14.01,2013-03-11 21:03:00,
2013-03-11 17:08:00,77.4,38.8,30.12,East,96,5.4,7.2,25,0.00,,---,0.00,VWS V14.01,2013-03-11 21:08:00,
2013-03-11 17:13:00,78.3,39.6,30.12,SSE,162,3.6,4.0,25,0.00,,---,0.00,VWS V14.01,2013-03-11 21:13:00,
2013-03-11 17:18:00,77.5,39.0,30.12,South,184,7.2,7.2,25,0.00,,---,0.00,VWS V14.01,2013-03-11 21:18:00,
2013-03-11 17:23:00,76.3,40.8,30.09,SE,127,5.8,5.8,28,0.00,,---,0.00,VWS V14.01,2013-03-11 21:23:00,
2013-03-11 17:29:00,78.4,40.8,30.09,SE,130,10.5,10.5,26,0.00,,---,0.00,VWS V14.01,2013-03-11 21:29:00,
2013-03-11 17:34:00,79.0,40.2,30.09,SE,132,6.7,6.7,25,0.00,,---,0.00,VWS V14.01,2013-03-11 21:34:00,
2013-03-11 17:39:00,79.9,39.9,30.09,East,93,5.4,8.7,24,0.00,,---,0.00,VWS V14.01,2013-03-11 21:39:00,
2013-03-11 17:44:00,77.9,39.3,30.09,SE,126,6.3,8.3,25,0.00,,---,0.00,VWS V14.01,2013-03-11 21:44:00,
2013-03-11 17:49:00,76.3,40.8,30.09,SSE,150,5.4,9.6,28,0.00,,---,0.00,VWS V14.01,2013-03-11 21:49:00,
2013-03-11 17:54:00,76.1,41.6,30.09,SE,141,5.4,5.4,29,0.00,,---,0.00,VWS V14.01,2013-03-11 21:54:00,
2013-03-11 18:00:00,78.1,42.4,30.09,South,190,4.9,6.3,28,0.00,,---,0.00,VWS V14.01,2013-03-11 22:00:00,
2013-03-11 18:05:00,79.5,41.7,30.09,ESE,112,5.4,7.6,26,0.00,,---,0.00,VWS V14.01,2013-03-11 22:05:00,
2013-03-11 18:10:00,79.2,40.3,30.09,SE,131,6.3,8.7,25,0.00,,---,0.00,VWS V14.01,2013-03-11 22:10:00,
2013-03-11 18:15:00,78.6,40.9,30.09,SE,141,6.3,7.6,26,0.00,,---,0.00,VWS V14.01,2013-03-11 22:15:00,
2013-03-11 18:20:00,77.9,40.3,30.09,SSE,160,4.9,6.3,26,0.00,,---,0.00,VWS V14.01,2013-03-11 22:20:00,
2013-03-11 18:25:00,75.6,41.1,30.09,SE,133,4.9,8.7,29,0.00,,---,0.00,VWS V14.01,2013-03-11 22:25:00,
2013-03-11 18:30:00,75.4,41.8,30.09,SSE,157,5.4,6.7,30,0.00,,---,0.00,VWS V14.01,2013-03-11 22:30:00,
2013-03-11 18:35:00,75.2,41.7,30.09,ESE,116,3.6,3.6,30,0.00,,---,0.00,VWS V14.01,2013-03-11 22:35:00,
2013-03-11 18:40:00,75.0,42.4,30.09,SSE,155,7.6,7.6,31,0.00,,---,0.00,VWS V14.01,2013-03-11 22:40:00,
2013-03-11 18:46:00,74.1,41.6,30.09,East,96,5.4,7.6,31,0.00,,---,0.00,VWS V14.01,2013-03-11 22:46:00,
2013-03-11 18:51:00,73.0,41.5,30.09,East,97,5.8,7.6,32,0.00,,---,0.00,VWS V14.01,2013-03-11 22:51:00,
2013-03-11 18:56:00,72.0,40.5,30.09,SE,135,6.3,6.3,32,0.00,,---,0.00,VWS V14.01,2013-03-11 22:56:00,
2013-03-11 19:01:00,71.4,40.8,30.09,SSE,168,7.6,8.3,33,0.00,,---,0.00,VWS V14.01,2013-03-11 23:01:00,
2013-03-11 19:06:00,70.9,41.1,30.09,ESE,122,5.8,5.8,34,0.00,,---,0.00,VWS V14.01,2013-03-11 23:06:00,
2013-03-11 19:11:00,70.5,40.8,30.09,South,181,8.1,8.1,34,0.00,,---,0.00,VWS V14.01,2013-03-11 23:11:00,
2013-03-11 19:16:00,70.0,41.1,30.09,SSE,151,5.4,5.4,35,0.00,,---,0.00,VWS V14.01,2013-03-11 23:16:00,
2013-03-11 19:22:00,69.8,41.7,30.09,SSE,147,8.1,8.1,36,0.00,,---,0.00,VWS V14.01,2013-03-11 23:22:00,
2013-03-11 19:27:00,69.4,42.1,30.09,SE,137,2.2,5.8,37,0.00,,---,0.00,VWS V14.01,2013-03-11 23:27:00,
2013-03-11 19:32:00,69.3,42.6,30.09,ESE,113,5.4,5.4,38,0.00,,---,0.00,VWS V14.01,2013-03-11 23:32:00,
2013-03-11 19:37:00,68.9,43.0,30.09,South,169,4.0,4.0,39,0.00,,---,0.00,VWS V14.01,2013-03-11 23:37:00,
2013-03-11 19:43:00,68.5,43.9,30.09,ESE,123,4.9,4.9,41,0.00,,---,0.00,VWS V14.01,2013-03-11 23:43:00,
2013-03-11 19:48:00,68.4,44.4,30.09,SSE,166,5.8,5.8,42,0.00,,---,0.00,VWS V14.01,2013-03-11 23:48:00,
2013-03-11 19:53:00,68.0,44.7,30.09,ESE,119,2.2,3.6,43,0.00,,---,0.00,VWS V14.01,2013-03-11 23:53:00,
2013-03-11 19:58:00,68.0,44.7,30.09,East,99,3.6,4.0,43,0.00,,---,0.00,VWS V14.01,2013-03-11 23:58:00,
2013-03-11 20:03:00,67.6,45.0,30.09,SE,133,2.7,3.6,44,0.00,,---,0.00,VWS V14.01,2013-03-12 00:03:00,
2013-03-11 20:08:00,67.3,45.2,30.09,ESE,107,2.7,3.6,45,0.00,,---,0.00,VWS V14.01,2013-03-12 00:08:00,
2013-03-11 20:13:00,67.3,45.8,30.09,SSE,150,0.0,2.7,46,0.00,,---,0.00,VWS V14.01,2013-03-12 00:13:00,
2013-03-11 20:18:00,67.5,46.0,30.09,SE,124,2.2,3.6,46,0.00,,---,0.00,VWS V14.01,2013-03-12 00:18:00,
2013-03-11 20:24:00,67.6,45.6,30.12,SE,132,3.1,4.0,45,0.00,,---,0.00,VWS V14.01,2013-03-12 00:24:00,
2013-03-11 20:29:00,67.6,45.6,30.12,SE,142,2.7,3.1,45,0.00,,---,0.00,VWS V14.01,2013-03-12 00:29:00,
2013-03-11 20:34:00,67.6,45.6,30.12,ESE,123,2.7,3.6,45,0.00,,---,0.00,VWS V14.01,2013-03-12 00:34:00,
2013-03-11 20:40:00,68.0,44.7,30.12,SE,132,3.6,6.3,43,0.00,,---,0.00,VWS V14.01,2013-03-12 00:40:00,
2013-03-11 20:45:00,68.0,44.7,30.12,ESE,119,2.2,4.0,43,0.00,,---,0.00,VWS V14.01,2013-03-12 00:45:00,
2013-03-11 20:50:00,67.6,45.0,30.12,ESE,110,5.4,5.8,44,0.00,,---,0.00,VWS V14.01,2013-03-12 00:50:00,
2013-03-11 20:55:00,67.5,44.8,30.12,SE,131,4.9,4.9,44,0.00,,---,0.00,VWS V14.01,2013-03-12 00:55:00,
2013-03-11 21:00:00,67.3,45.2,30.12,East,84,5.8,5.8,45,0.00,,---,0.00,VWS V14.01,2013-03-12 01:00:00,
2013-03-11 21:05:00,67.1,45.7,30.12,ENE,74,2.2,2.7,46,0.00,,---,0.00,VWS V14.01,2013-03-12 01:05:00,
2013-03-11 21:10:00,67.1,45.7,30.12,ESE,105,3.6,5.8,46,0.00,,---,0.00,VWS V14.01,2013-03-12 01:10:00,
2013-03-11 21:15:00,67.1,45.7,30.12,SE,127,3.1,3.1,46,0.00,,---,0.00,VWS V14.01,2013-03-12 01:15:00,
2013-03-11 21:21:00,66.9,45.5,30.12,SSE,151,6.3,6.3,46,0.00,,---,0.00,VWS V14.01,2013-03-12 01:21:00,
2013-03-11 21:26:00,66.9,45.5,30.12,ESE,104,2.7,3.6,46,0.00,,---,0.00,VWS V14.01,2013-03-12 01:26:00,
2013-03-11 21:31:00,67.1,45.7,30.12,ESE,119,0.0,3.6,46,0.00,,---,0.00,VWS V14.01,2013-03-12 01:31:00,
2013-03-11 21:36:00,66.7,45.9,30.12,SSE,149,3.1,3.6,47,0.00,,---,0.00,VWS V14.01,2013-03-12 01:36:00,
2013-03-11 21:41:00,66.7,45.9,30.12,SE,146,2.7,4.0,47,0.00,,---,0.00,VWS V14.01,2013-03-12 01:41:00,
2013-03-11 21:47:00,67.1,45.7,30.12,SSE,162,3.1,3.1,46,0.00,,---,0.00,VWS V14.01,2013-03-12 01:47:00,
2013-03-11 21:52:00,66.7,45.9,30.12,SSE,151,2.7,3.6,47,0.00,,---,0.00,VWS V14.01,2013-03-12 01:52:00,
2013-03-11 21:57:00,66.9,46.0,30.12,SE,145,3.1,3.1,47,0.00,,---,0.00,VWS V14.01,2013-03-12 01:57:00,
2013-03-11 22:02:00,66.9,45.5,30.12,SE,143,0.0,3.6,46,0.00,,---,0.00,VWS V14.01,2013-03-12 02:02:00,
2013-03-11 22:07:00,66.9,45.5,30.12,SE,132,0.0,2.7,46,0.00,,---,0.00,VWS V14.01,2013-03-12 02:07:00,
2013-03-11 22:12:00,66.7,46.5,30.12,SE,136,3.6,3.6,48,0.00,,---,0.00,VWS V14.01,2013-03-12 02:12:00,
2013-03-11 22:17:00,66.7,45.9,30.12,SE,145,0.0,0.0,47,0.00,,---,0.00,VWS V14.01,2013-03-12 02:17:00,
2013-03-11 22:22:00,66.4,46.1,30.12,SE,127,4.0,4.0,48,0.00,,---,0.00,VWS V14.01,2013-03-12 02:22:00,
2013-03-11 22:27:00,66.2,46.5,30.12,ESE,104,0.0,0.0,49,0.00,,---,0.00,VWS V14.01,2013-03-12 02:27:00,
2013-03-11 22:32:00,65.8,47.2,30.12,SSE,151,2.7,2.7,51,0.00,,---,0.00,VWS V14.01,2013-03-12 02:32:00,
2013-03-11 22:38:00,65.5,47.4,30.12,SE,130,2.2,2.7,52,0.00,,---,0.00,VWS V14.01,2013-03-12 02:38:00,
2013-03-11 22:43:00,65.1,48.1,30.12,SSE,149,0.0,0.0,54,0.00,,---,0.00,VWS V14.01,2013-03-12 02:43:00,
2013-03-11 22:48:00,64.8,48.7,30.12,SE,130,4.0,4.0,56,0.00,,---,0.00,VWS V14.01,2013-03-12 02:48:00,
2013-03-11 22:53:00,64.4,48.8,30.12,ESE,118,3.1,3.6,57,0.00,,---,0.00,VWS V14.01,2013-03-12 02:53:00,
2013-03-11 22:59:00,64.2,50.1,30.12,SE,133,0.0,0.0,60,0.00,,---,0.00,VWS V14.01,2013-03-12 02:59:00,
2013-03-11 23:04:00,64.2,50.5,30.12,SE,134,0.0,0.0,61,0.00,,---,0.00,VWS V14.01,2013-03-12 03:04:00,
2013-03-11 23:09:00,63.9,50.6,30.12,SE,140,2.2,2.7,62,0.00,,---,0.00,VWS V14.01,2013-03-12 03:09:00,
2013-03-11 23:14:00,63.5,52.0,30.12,SE,126,0.0,0.0,66,0.00,,---,0.00,VWS V14.01,2013-03-12 03:14:00,
2013-03-11 23:19:00,63.5,52.8,30.12,SSE,157,0.0,2.7,68,0.00,,---,0.00,VWS V14.01,2013-03-12 03:19:00,
2013-03-11 23:24:00,63.9,53.5,30.12,ESE,123,2.2,2.7,69,0.00,,---,0.00,VWS V14.01,2013-03-12 03:24:00,
2013-03-11 23:29:00,63.9,53.1,30.12,East,100,2.7,2.7,68,0.00,,---,0.00,VWS V14.01,2013-03-12 03:29:00,
2013-03-11 23:34:00,64.0,52.5,30.12,ESE,114,0.0,0.0,66,0.00,,---,0.00,VWS V14.01,2013-03-12 03:34:00,
2013-03-11 23:39:00,64.0,52.0,30.12,ESE,122,0.0,0.0,65,0.00,,---,0.00,VWS V14.01,2013-03-12 03:39:00,
2013-03-11 23:45:00,64.0,52.0,30.12,ESE,120,3.1,3.1,65,0.00,,---,0.00,VWS V14.01,2013-03-12 03:45:00,
2013-03-11 23:50:00,64.0,52.0,30.12,ESE,120,4.5,4.5,65,0.00,,---,0.00,VWS V14.01,2013-03-12 03:50:00,
2013-03-11 23:55:00,64.4,50.7,30.12,SE,136,2.7,2.7,61,0.00,,---,0.00,VWS V14.01,2013-03-12 03:55:00,